WetterOnline ( https://www.wetteronline.at )

Wetter aktuell Marienberg

Aktuelles Wetter: Marienberg (640m)

6-stündlich | Neueste Meldungen
Ortszeit Temperatur Wetter
Di, 20.08. 2:00 12.8° C wolkig
Mo, 19.08. 20:00 18.6° C wolkig
Mo, 19.08. 14:00 16.9° C bedeckt
Mo, 19.08. 8:00 16.6° C wolkig
Mo, 19.08. 2:00 15.8° C wolkig
So, 18.08. 20:00 25.1° C leicht bewölkt
So, 18.08. 14:00 25.5° C leicht bewölkt
So, 18.08. 8:00 17.3° C bedeckt
Ortszeit Temperatur Wetter
Di, 20.08. 2:00 12.8° C wolkig
Di, 20.08. 1:40 12.8° C bedeckt
Di, 20.08. 1:30 12.7° C bedeckt
Di, 20.08. 1:20 12.7° C bedeckt
Di, 20.08. 1:10 12.9° C bedeckt
Di, 20.08. 1:00 12.6° C bedeckt
Di, 20.08. 0:50 12.6° C bedeckt
Di, 20.08. 0:30 13.1° C bewölkt
Di, 20.08. 0:00 13.4° C bewölkt
Mo, 19.08. 23:30 14.4° C bedeckt
Mo, 19.08. 23:00 15.2° C bedeckt
Ortszeit Relative Feuchte Sichtweite
Di, 20.08. 2:00 99% 9 km
Mo, 19.08. 20:00 66% 60 km
Mo, 19.08. 14:00 80% 45 km
Mo, 19.08. 8:00 88% >70 km
Mo, 19.08. 2:00 97% 35 km
So, 18.08. 20:00 49% >70 km
So, 18.08. 14:00 52% >70 km
So, 18.08. 8:00 79% 60 km
Ortszeit Relative Feuchte Sichtweite
Di, 20.08. 2:00 99% 9 km
Di, 20.08. 1:40 98% -
Di, 20.08. 1:30 97% 11 km
Di, 20.08. 1:20 97% -
Di, 20.08. 1:10 99% -
Di, 20.08. 1:00 97% 14 km
Di, 20.08. 0:50 97% -
Di, 20.08. 0:30 98% 14 km
Di, 20.08. 0:00 97% 10 km
Mo, 19.08. 23:30 94% 14 km
Mo, 19.08. 23:00 93% 23 km
Ortszeit Niederschlagsmenge Niederschlagsart
Di, 20.08. 2:00 0.0 l/m2 in 6 Std. -
Mo, 19.08. 20:00 0.2 l/m2 in 12 Std. Sprühregen
Mo, 19.08. 14:00 0.2 l/m2 in 6 Std. Regen
Mo, 19.08. 8:00 12 l/m2 in 12 Std. Regen
Mo, 19.08. 2:00 12 l/m2 in 6 Std. Regenschauer
So, 18.08. 20:00 0.1 l/m2 in 12 Std. -
So, 18.08. 14:00 0.1 l/m2 in 6 Std. Sprühregen
So, 18.08. 8:00 0.2 l/m2 in 12 Std. Regen
Ortszeit Niederschlagsmenge Niederschlagsart
Di, 20.08. 2:00 0.0 l/m2 in 1 Std. -
Di, 20.08. 1:40 keine Meldung -
Di, 20.08. 1:30 0.0 l/m2 in 1 Std. -
Di, 20.08. 1:20 keine Meldung -
Di, 20.08. 1:10 keine Meldung -
Di, 20.08. 1:00 0.0 l/m2 in 1 Std. -
Di, 20.08. 0:50 keine Meldung -
Di, 20.08. 0:30 0.0 l/m2 in 1 Std. -
Di, 20.08. 0:00 0.0 l/m2 in 1 Std. -
Mo, 19.08. 23:30 0.0 l/m2 in 1 Std. -
Mo, 19.08. 23:00 0.0 l/m2 in 1 Std. -
Ortszeit Stärke Spitze Richtung
km/h Bft. km/h Grad Sektor
Di, 20.08. 2:00 0 0 11 - -
Mo, 19.08. 20:00 4 1 18 70° O
Mo, 19.08. 14:00 4 1 18 250° W
Mo, 19.08. 8:00 11 2 22 230° SW
Mo, 19.08. 2:00 7 2 61 230° SW
So, 18.08. 20:00 7 2 43 220° SW
So, 18.08. 14:00 18 3 50 230° SW
So, 18.08. 8:00 15 3 31 220° SW
Ortszeit Stärke Spitze Richtung
km/h Bft. km/h Grad Sektor
Di, 20.08. 2:00 0 0 4 - -
Di, 20.08. 1:40 0 0 - 210° SW
Di, 20.08. 1:30 0 0 4 - -
Di, 20.08. 1:20 2 1 - 110° O
Di, 20.08. 1:10 0 0 - 270° W
Di, 20.08. 1:00 4 1 7 220° SW
Di, 20.08. 0:50 4 1 - 220° SW
Di, 20.08. 0:30 4 1 4 140° SO
Di, 20.08. 0:00 0 0 7 - -
Mo, 19.08. 23:30 2 1 7 90° O
Mo, 19.08. 23:00 4 1 11 150° SO
Ortszeit Untergrenze Bedeckung Gattung
total tief tief mittel hoch
Di, 20.08. 2:00 2100 m 8/8 2/8 - - -
Mo, 19.08. 20:00 1800 m 7/8 3/8 - - -
Mo, 19.08. 14:00 840 m 8/8 8/8 - - -
Mo, 19.08. 8:00 1290 m 7/8 1/8 - - -
Mo, 19.08. 2:00 1500 m 8/8 2/8 - - -
So, 18.08. 20:00 2100 m 3/8 1/8 - - -
So, 18.08. 14:00 1500 m 4/8 4/8 - - -
So, 18.08. 8:00 720 m 8/8 8/8 - - -
Ortszeit Bedeckungsgrad in Achtel und Wolkenuntergrenze
Di, 20.08. 2:00 2(2100m) 8(6000m)
Di, 20.08. 1:40 8(5700m)
Di, 20.08. 1:30 8(6000m)
Di, 20.08. 1:20 8(6000m)
Di, 20.08. 1:10 8(6000m) 8(7200m)
Di, 20.08. 1:00 7(6000m) 8(6900m) 8(7500m)
Di, 20.08. 0:50 7(6000m) 8(6900m) 8(7500m)
Di, 20.08. 0:30 7(6600m) 7(7200m) 7(7800m)
Di, 20.08. 0:00 7(6600m) 7(7800m) 7(7800m)
Mo, 19.08. 23:30 8(6600m)
Mo, 19.08. 23:00 8(6600m) 8(7800m)
Ortszeit Luftdruck NN (hPa) Tendenz (hPa in 3 Std.)
Di, 20.08. 2:00 1021 + 0,6
Mo, 19.08. 20:00 1018 + 0,5
Mo, 19.08. 14:00 1017 + 1,2
Mo, 19.08. 8:00 1015 + 1,4
Mo, 19.08. 2:00 1013 + 0,3
So, 18.08. 20:00 1007 - 0,3
So, 18.08. 14:00 1007 + 0,7
So, 18.08. 8:00 1009 - 0,9
Ortszeit Luftdruck NN (hPa) Tendenz (hPa in 3 Std.)
Di, 20.08. 2:00 1021 + 0,6
Di, 20.08. 1:40 1021 keine Meldung
Di, 20.08. 1:30 1021 + 0,6
Di, 20.08. 1:20 1021 keine Meldung
Di, 20.08. 1:10 1021 keine Meldung
Di, 20.08. 1:00 1021 + 0,7
Di, 20.08. 0:50 1021 keine Meldung
Di, 20.08. 0:30 1021 + 0,6
Di, 20.08. 0:00 1020 + 0,9
Mo, 19.08. 23:30 1020 + 1,0
Mo, 19.08. 23:00 1020 + 1,1
Ortszeit Schneehöhe (cm)
Di, 20.08. 2:00 -
Mo, 19.08. 20:00 -
Mo, 19.08. 14:00 -
Mo, 19.08. 8:00 -
Mo, 19.08. 2:00 -
So, 18.08. 20:00 -
So, 18.08. 14:00 -
So, 18.08. 8:00 -
Ortszeit Schneehöhe (cm)
Di, 20.08. 2:00 -
Di, 20.08. 1:40 -
Di, 20.08. 1:30 -
Di, 20.08. 1:20 -
Di, 20.08. 1:10 -
Di, 20.08. 1:00 -
Di, 20.08. 0:50 -
Di, 20.08. 0:30 -
Di, 20.08. 0:00 -
Mo, 19.08. 23:30 -
Mo, 19.08. 23:00 -
Link zu dieser Seite / Seite empfehlen

Das Wetter in ...